Weather History for Covington, KY

Change the Weather History Date:

Sunday, January 27, 2013

  Actual Average Record
Temperature  
Mean Temperature 29 °F 31 °F  
Max Temperature 39 °F 39 °F 70 °F (1944)
Min Temperature 19 °F 23 °F -11 °F (1963)
Degree Days  
Heating Degree Days 36 34  
Month to date heating degree days 882 918  
Since 1 July heating degree days 2748 2837  
Cooling Degree Days 0 0  
Month to date cooling degree days 0 0  
Year to date cooling degree days 0 0  
Moisture  
Dew Point 22 °F    
Average Humidity 73    
Maximum Humidity 92    
Minimum Humidity 54    
Precipitation  
Precipitation 0.21 in 0.10 in 1.30 in (1949)
Month to date precipitation 2.22 2.61  
Year to date precipitation 2.22 2.61  
Snow  
Snow 0.00 in 0.20 in 6.00 in (1925)
Month to date snowfall 1.1 5.5  
Since 1 July snowfall 8.7 11.1  
Snow Depth 0.00 in    
Sea Level Pressure  
Sea Level Pressure 30.36 in    
Wind  
Wind Speed 8 mph (ESE)    
Max Wind Speed 14 mph    
Max Gust Speed 17 mph    
Visibility 7 miles    
Events Rain    
T = Trace of Precipitation, MM = Missing Value Source: NWS Daily Summary

Daily Weather History Graph

Daily Weather History Graph

Search for Another Location

Airport:

Trip Planner

Search our weather history database for the weather conditions in past years. The results will help you decide how hot, cold, wet, or windy it might be!

Date:

Astronomy

Jan. 27, 2013 Rise Set
Actual Time 7:49 AM EST 5:54 PM EST
Civil Twilight 7:20 AM EST 6:22 PM EST
Nautical Twilight 6:48 AM EST 6:55 PM EST
Astronomical Twilight 6:16 AM EST 7:26 PM EST
Moon 6:46 PM EST (1/27) 7:42 AM EST (1/27)
Length of Visible Light 11h 02m
Length of Day
10h 05m
Full, 100% of the Moon is Illuminated
Jan 27
Full
Feb 3
Last Quarter
Feb 10
New
Feb 17
First Quarter
Feb 25
Full

Hourly Weather History & Observations

Time (EST) Temp. Windchill Dew Point Humidity Pressure Visibility Wind Dir Wind Speed Gust Speed Precip Events Conditions
12:52 AM 21.0 °F 12.4 °F 16.0 °F 81% 30.43 in 7.0 mi ESE 6.9 mph - N/A   Clear
1:52 AM 21.9 °F 14.5 °F 16.0 °F 78% 30.43 in 7.0 mi East 5.8 mph - N/A   Clear
2:52 AM 21.0 °F 14.6 °F 16.0 °F 81% 30.44 in 7.0 mi East 4.6 mph - N/A   Clear
3:52 AM 21.0 °F 13.4 °F 16.0 °F 81% 30.43 in 6.0 mi East 5.8 mph - N/A   Haze
4:52 AM 19.9 °F 11.1 °F 16.0 °F 85% 30.42 in 6.0 mi East 6.9 mph - N/A   Partly Cloudy
5:52 AM 19.9 °F 12.1 °F 16.0 °F 85% 30.43 in 6.0 mi East 5.8 mph - N/A   Clear
6:52 AM 19.9 °F 12.1 °F 16.0 °F 85% 30.44 in 7.0 mi ESE 5.8 mph - N/A   Scattered Clouds
7:52 AM 21.0 °F 13.4 °F 16.0 °F 81% 30.45 in 5.0 mi ESE 5.8 mph - N/A   Haze
8:52 AM 24.1 °F 13.7 °F 18.0 °F 77% 30.44 in 6.0 mi ESE 10.4 mph - N/A   Haze
9:52 AM 26.1 °F 18.4 °F 19.9 °F 78% 30.43 in 6.0 mi ESE 6.9 mph - N/A   Haze
10:52 AM 28.9 °F 20.4 °F 21.0 °F 72% 30.43 in 6.0 mi SE 9.2 mph - N/A   Haze
11:52 AM 30.9 °F 23.5 °F 21.9 °F 69% 30.42 in 7.0 mi SE 8.1 mph - N/A   Overcast
12:52 PM 34.0 °F 26.0 °F 21.9 °F 61% 30.39 in 8.0 mi ESE 10.4 mph - N/A   Overcast
1:52 PM 35.1 °F 27.9 °F 21.9 °F 59% 30.37 in 9.0 mi SSE 9.2 mph - N/A   Overcast
2:52 PM 37.0 °F 31.0 °F 23.0 °F 57% 30.33 in 9.0 mi ESE 8.1 mph - N/A   Overcast
3:52 PM 37.0 °F 29.8 °F 23.0 °F 57% 30.30 in 9.0 mi ESE 10.4 mph - N/A   Overcast
5:52 PM 37.9 °F 32.7 °F 24.1 °F 57% 30.27 in 10.0 mi ESE 6.9 mph - 0.00 in Rain Light Rain
6:52 PM 37.0 °F 32.4 °F 28.0 °F 70% 30.27 in 9.0 mi SE 5.8 mph - 0.00 in Rain Light Rain
7:52 PM 36.0 °F 30.3 °F 30.0 °F 79% 30.26 in 6.0 mi SE 6.9 mph - 0.02 in Rain Light Rain
8:52 PM 36.0 °F 29.0 °F 32.0 °F 86% 30.24 in 5.0 mi SE 9.2 mph - 0.03 in Rain Light Rain
9:52 PM 37.9 °F 30.9 °F 35.1 °F 89% 30.22 in 6.0 mi SSE 10.4 mph - 0.05 in Rain Light Rain
10:52 PM 37.4 °F 30.8 °F 35.6 °F 93% 30.18 in 5.0 mi SSE 9.2 mph - N/A Rain Light Rain
11:52 PM 39.0 °F 32.8 °F 37.0 °F 93% 30.18 in 5.0 mi South 9.2 mph - 0.04 in Rain Light Rain